| time (UTC) | temp F | wind direction | speed knots | gust knots | rain 1hr in | rain 24hr in | rain mn in | humidity % | barometer mb |
| 20260505152421 | 83 | 235 | 0.0 | 1.7 | 0.00 | 0.00 | 0.00 | 99 | 1004.2 |
| 20260505151921 | 83 | 225 | 0.0 | 1.7 | 0.00 | 0.00 | 0.00 | 99 | 1005.0 |
| 20260505151421 | 83 | 230 | 0.0 | 0.0 | 0.00 | 0.00 | 0.00 | 99 | 1005.0 |
| 20260505150921 | 82 | 228 | 0.0 | 0.0 | 0.00 | 0.00 | 0.00 | 99 | 1005.0 |
| 20260505150421 | 82 | 227 | 0.0 | 0.0 | 0.00 | 0.00 | 0.00 | 99 | 1005.0 |
| 20260505140421 | 83 | 209 | 0.0 | 0.0 | 0.00 | 0.00 | 0.00 | 99 | 1005.1 |
| 20260505124921 | 74 | 255 | 0.0 | 0.0 | 0.00 | 0.00 | 0.00 | 99 | 1006.0 |
| 20260505124421 | 74 | 257 | 0.0 | 0.0 | 0.00 | 0.00 | 0.00 | 99 | 1005.2 |
| 20260505123921 | 74 | 226 | 0.0 | 0.0 | 0.00 | 0.00 | 0.00 | 99 | 1005.2 |
| 20260505123421 | 73 | 244 | 0.0 | 0.0 | 0.00 | 0.00 | 0.00 | 99 | 1005.2 |
| 20260505122920 | 72 | 274 | 0.0 | 0.0 | 0.00 | 0.00 | 0.00 | 99 | 1005.2 |
| 20260505122420 | 71 | 221 | 0.0 | 0.0 | 0.00 | 0.00 | 0.00 | 99 | 1005.2 |
| 20260505121920 | 69 | 242 | 0.0 | 0.0 | 0.00 | 0.00 | 0.00 | 99 | 1005.2 |
| 20260505121420 | 68 | 241 | 0.0 | 0.0 | 0.00 | 0.00 | 0.00 | 99 | 1005.2 |
| 20260505120921 | 67 | 229 | 0.0 | 2.6 | 0.00 | 0.00 | 0.00 | 99 | 1005.2 |
| 20260505120420 | 67 | 197 | 0.0 | 2.6 | 0.00 | 0.00 | 0.00 | 99 | 1005.2 |
| 20260505115920 | 67 | 199 | 0.0 | 0.0 | 0.00 | 0.00 | 0.00 | 99 | 1005.2 |
| 20260505115420 | 66 | 182 | 0.0 | 0.0 | 0.00 | 0.00 | 0.00 | 99 | 1005.2 |
| 20260505114920 | 65 | 214 | 0.0 | 0.0 | 0.00 | 0.00 | 0.00 | 99 | 1005.2 |
| 20260505114421 | 64 | 9 | 0.0 | 0.0 | 0.00 | 0.00 | 0.00 | 99 | 1006.0 |
| 20260505113920 | 64 | 147 | 0.0 | 0.0 | 0.00 | 0.00 | 0.00 | 99 | 1006.0 |
| 20260505113421 | 61 | 184 | 0.0 | 0.0 | 0.00 | 0.00 | 0.00 | 99 | 1005.2 |
| 20260505112921 | 60 | 231 | 0.0 | 0.0 | 0.00 | 0.00 | 0.00 | 99 | 1006.0 |
| 20260505112420 | 59 | 220 | 0.0 | 0.0 | 0.00 | 0.00 | 0.00 | 99 | 1005.2 |
| 20260505111920 | 57 | 317 | 0.0 | 0.0 | 0.00 | 0.00 | 0.00 | 99 | 1005.2 |
| 20260505111420 | 56 | 222 | 0.0 | 0.0 | 0.00 | 0.00 | 0.00 | 99 | 1005.2 |
| 20260505110920 | 55 | 219 | 0.0 | 0.0 | 0.00 | 0.00 | 0.00 | 99 | 1006.0 |
| 20260505110420 | 54 | 222 | 0.0 | 0.0 | 0.00 | 0.00 | 0.00 | 99 | 1006.0 |
| 20260505101920 | 50 | 192 | 0.0 | 0.0 | 0.00 | 0.00 | 0.00 | 99 | 1005.2 |
| 20260505101420 | 50 | 172 | 0.0 | 0.0 | 0.00 | 0.00 | 0.00 | 99 | 1005.2 |
| 20260505100920 | 50 | 115 | 0.0 | 0.0 | 0.00 | 0.00 | 0.00 | 99 | 1005.1 |
| 20260505100420 | 51 | 144 | 0.0 | 0.0 | 0.00 | 0.00 | 0.00 | 99 | 1005.1 |
| 20260505095920 | 51 | 231 | 0.0 | 0.0 | 0.00 | 0.00 | 0.00 | 99 | 1005.0 |
| 20260505095420 | 52 | 202 | 0.0 | 0.0 | 0.00 | 0.00 | 0.00 | 99 | 1005.0 |
| 20260505094920 | 52 | 72 | 0.0 | 0.0 | 0.00 | 0.00 | 0.00 | 99 | 1005.2 |
| 20260505094420 | 52 | 227 | 0.0 | 0.0 | 0.00 | 0.00 | 0.00 | 99 | 1005.0 |
| 20260505093920 | 52 | 147 | 0.0 | 0.0 | 0.00 | 0.00 | 0.00 | 99 | 1005.0 |
| 20260505093420 | 52 | 167 | 0.0 | 0.0 | 0.00 | 0.00 | 0.00 | 99 | 1005.2 |
| 20260505092920 | 52 | 151 | 0.0 | 0.0 | 0.00 | 0.00 | 0.00 | 99 | 1006.0 |
| 20260505092420 | 53 | 106 | 0.0 | 0.0 | 0.00 | 0.00 | 0.00 | 99 | 1005.1 |
| 20260505091920 | 53 | 331 | 0.0 | 0.0 | 0.00 | 0.00 | 0.00 | 99 | 1005.0 |
| 20260505091420 | 53 | 201 | 0.0 | 0.0 | 0.00 | 0.00 | 0.00 | 99 | 1005.0 |
| 20260505090920 | 53 | 258 | 0.0 | 0.0 | 0.00 | 0.00 | 0.00 | 99 | 1005.0 |
| 20260505090420 | 52 | 238 | 0.0 | 0.0 | 0.00 | 0.00 | 0.00 | 99 | 1005.0 |
| 20260505085920 | 52 | 213 | 0.0 | 0.0 | 0.00 | 0.00 | 0.00 | 99 | 1005.0 |
| 20260505085420 | 53 | 223 | 0.0 | 0.0 | 0.00 | 0.00 | 0.00 | 99 | 1005.0 |
| 20260505084920 | 53 | 193 | 0.0 | 0.0 | 0.00 | 0.00 | 0.00 | 99 | 1005.0 |
| 20260505084420 | 53 | 228 | 0.0 | 0.0 | 0.00 | 0.00 | 0.00 | 99 | 1005.0 |
| 20260505083920 | 53 | 225 | 0.0 | 0.0 | 0.00 | 0.00 | 0.00 | 99 | 1005.0 |
| 20260505083420 | 53 | 186 | 0.0 | 0.0 | 0.00 | 0.00 | 0.00 | 99 | 1005.0 |
| 20260505082920 | 54 | 186 | 0.0 | 0.0 | 0.00 | 0.00 | 0.00 | 99 | 1005.0 |
| 20260505082420 | 54 | 209 | 0.0 | 0.0 | 0.00 | 0.00 | 0.00 | 99 | 1005.0 |
| 20260505081920 | 54 | 224 | 0.0 | 0.0 | 0.00 | 0.00 | 0.00 | 99 | 1005.0 |
| 20260505081420 | 55 | 149 | 0.0 | 0.0 | 0.00 | 0.00 | 0.00 | 99 | 1005.0 |
| 20260505080920 | 55 | 175 | 0.0 | 0.0 | 0.00 | 0.00 | 0.00 | 99 | 1005.0 |
| 20260505080420 | 55 | 212 | 0.0 | 0.0 | 0.00 | 0.00 | 0.00 | 99 | 1005.0 |
| 20260505075920 | 55 | 222 | 0.0 | 0.0 | 0.00 | 0.00 | 0.00 | 99 | 1005.0 |
| 20260505075420 | 55 | 98 | 0.0 | 0.0 | 0.00 | 0.00 | 0.00 | 99 | 1005.0 |
| 20260505074920 | 55 | 221 | 0.0 | 0.0 | 0.00 | 0.00 | 0.00 | 99 | 1005.0 |
| 20260505074420 | 55 | 218 | 0.0 | 0.0 | 0.00 | 0.00 | 0.00 | 99 | 1005.0 |
| 20260505073920 | 55 | 176 | 0.0 | 0.0 | 0.00 | 0.00 | 0.00 | 99 | 1005.0 |
| 20260505073420 | 55 | 214 | 0.0 | 0.0 | 0.00 | 0.00 | 0.00 | 99 | 1005.0 |
| 20260505072920 | 55 | 226 | 0.0 | 0.0 | 0.00 | 0.00 | 0.00 | 99 | 1005.0 |
| 20260505072420 | 55 | 219 | 0.0 | 0.0 | 0.00 | 0.00 | 0.00 | 99 | 1005.0 |
| 20260505071920 | 55 | 216 | 0.0 | 0.0 | 0.00 | 0.00 | 0.00 | 99 | 1005.0 |
| 20260505071420 | 55 | 209 | 0.0 | 0.0 | 0.00 | 0.00 | 0.00 | 99 | 1005.0 |
| 20260505070921 | 55 | 234 | 0.0 | 0.0 | 0.00 | 0.00 | 0.00 | 99 | 1005.0 |
| 20260505070420 | 55 | 223 | 0.0 | 0.0 | 0.00 | 0.00 | 0.00 | 99 | 1005.0 |
| 20260505065920 | 55 | 186 | 0.0 | 0.0 | 0.00 | 0.00 | 0.00 | 99 | 1005.0 |
| 20260505065420 | 55 | 186 | 0.0 | 0.0 | 0.00 | 0.00 | 0.00 | 99 | 1005.0 |
| 20260505064920 | 55 | 223 | 0.0 | 0.0 | 0.00 | 0.00 | 0.00 | 99 | 1005.0 |
| 20260505064420 | 55 | 185 | 0.0 | 0.0 | 0.00 | 0.00 | 0.00 | 99 | 1005.0 |
| 20260505063920 | 55 | 177 | 0.0 | 0.0 | 0.00 | 0.00 | 0.00 | 99 | 1005.0 |
| 20260505063420 | 55 | 130 | 0.0 | 0.0 | 0.00 | 0.00 | 0.00 | 99 | 1005.1 |
| 20260505062920 | 55 | 128 | 0.0 | 0.0 | 0.00 | 0.00 | 0.00 | 99 | 1005.0 |
| 20260505062420 | 55 | 136 | 0.0 | 0.0 | 0.00 | 0.00 | 0.00 | 99 | 1005.0 |
| 20260505061920 | 55 | 175 | 0.0 | 0.0 | 0.00 | 0.00 | 0.00 | 99 | 1005.0 |
| 20260505061420 | 56 | 208 | 0.0 | 0.0 | 0.00 | 0.00 | 0.00 | 99 | 1005.0 |
| 20260505060920 | 56 | 169 | 0.0 | 0.0 | 0.00 | 0.00 | 0.00 | 99 | 1005.0 |
| 20260505060420 | 56 | 172 | 0.0 | 0.0 | 0.00 | 0.00 | 0.00 | 99 | 1005.0 |
| 20260505055920 | 57 | 214 | 0.0 | 0.0 | 0.00 | 0.00 | 0.00 | 99 | 1005.0 |
| 20260505055420 | 57 | 220 | 0.0 | 0.0 | 0.00 | 0.00 | 0.00 | 99 | 1005.0 |
| 20260505054920 | 57 | 242 | 0.0 | 0.0 | 0.00 | 0.00 | 0.00 | 99 | 1005.0 |
| 20260505054420 | 57 | 227 | 0.0 | 0.0 | 0.00 | 0.00 | 0.00 | 99 | 1005.0 |
| 20260505053920 | 58 | 268 | 0.0 | 0.0 | 0.00 | 0.00 | 0.00 | 99 | 1005.0 |
| 20260505053420 | 58 | 268 | 0.0 | 0.0 | 0.00 | 0.00 | 0.00 | 99 | 1005.0 |
| 20260505052920 | 58 | 255 | 0.0 | 0.0 | 0.00 | 0.00 | 0.00 | 99 | 1005.1 |
| 20260505052420 | 58 | 261 | 0.0 | 1.7 | 0.00 | 0.00 | 0.00 | 99 | 1005.0 |
| 20260505051920 | 58 | 234 | 0.0 | 1.7 | 0.00 | 0.00 | 0.00 | 99 | 1005.1 |
| 20260505051420 | 58 | 227 | 0.0 | 0.0 | 0.00 | 0.00 | 0.00 | 99 | 1006.0 |
| 20260505050920 | 58 | 257 | 0.0 | 2.6 | 0.00 | 0.00 | 0.00 | 99 | 1005.2 |
| 20260505050420 | 58 | 267 | 0.0 | 2.6 | 0.00 | 0.00 | 0.00 | 99 | 1006.0 |
| 20260505041420 | 59 | 228 | 0.0 | 0.9 | 0.00 | 0.00 | 0.00 | 99 | 1006.0 |
| 20260505040920 | 59 | 293 | 0.0 | 3.5 | 0.00 | 0.00 | 0.00 | 99 | 1005.1 |
| 20260505040420 | 60 | 266 | 0.0 | 3.5 | 0.00 | 0.00 | 0.00 | 99 | 1005.0 |
| 20260505035920 | 60 | 216 | 0.0 | 0.0 | 0.00 | 0.00 | 0.00 | 99 | 1005.0 |
| 20260505035420 | 59 | 270 | 0.0 | 0.0 | 0.00 | 0.00 | 0.00 | 99 | 1005.0 |
| 20260505034920 | 59 | 233 | 0.0 | 0.0 | 0.00 | 0.00 | 0.00 | 99 | 1005.0 |
| 20260505034420 | 59 | 235 | 0.0 | 0.0 | 0.00 | 0.00 | 0.00 | 99 | 1005.0 |
| 20260505033920 | 59 | 310 | 0.0 | 0.0 | 0.00 | 0.00 | 0.00 | 99 | 1005.2 |
| 20260505033420 | 58 | 269 | 0.0 | 0.0 | 0.00 | 0.00 | 0.00 | 99 | 1005.1 |
| 20260505032920 | 57 | 211 | 0.0 | 0.0 | 0.00 | 0.00 | 0.00 | 99 | 1005.2 |
| 20260505032420 | 57 | 287 | 0.0 | 0.9 | 0.00 | 0.00 | 0.00 | 99 | 1006.0 |
| 20260505031920 | 57 | 256 | 0.0 | 0.9 | 0.00 | 0.00 | 0.00 | 99 | 1006.0 |
| 20260505031420 | 57 | 31 | 0.0 | 0.0 | 0.00 | 0.00 | 0.00 | 99 | 1005.2 |
| 20260505030920 | 58 | 27 | 0.0 | 0.0 | 0.00 | 0.00 | 0.00 | 99 | 1005.2 |
| 20260505030420 | 58 | 282 | 0.0 | 0.0 | 0.00 | 0.00 | 0.00 | 99 | 1005.2 |
| 20260505025920 | 59 | 54 | 0.0 | 0.0 | 0.00 | 0.00 | 0.00 | 99 | 1005.2 |
| 20260505025420 | 59 | 210 | 0.0 | 0.0 | 0.00 | 0.00 | 0.00 | 99 | 1005.2 |
| 20260505024920 | 59 | 210 | 0.0 | 0.0 | 0.00 | 0.00 | 0.00 | 99 | 1005.1 |
| 20260505024420 | 58 | 208 | 0.0 | 0.0 | 0.00 | 0.00 | 0.00 | 99 | 1005.2 |
| 20260505023920 | 58 | 165 | 0.0 | 0.0 | 0.00 | 0.00 | 0.00 | 99 | 1006.0 |
| 20260505023420 | 58 | 227 | 0.0 | 0.0 | 0.00 | 0.00 | 0.00 | 99 | 1006.0 |
| 20260505022920 | 58 | 205 | 0.0 | 0.0 | 0.00 | 0.00 | 0.00 | 99 | 1006.0 |
| 20260505022420 | 58 | 208 | 0.0 | 0.0 | 0.00 | 0.00 | 0.00 | 99 | 1006.0 |
| 20260505021920 | 57 | 224 | 0.0 | 0.0 | 0.00 | 0.00 | 0.00 | 99 | 1005.2 |
| 20260505021420 | 56 | 213 | 0.0 | 1.7 | 0.00 | 0.00 | 0.00 | 99 | 1005.2 |
| 20260505020920 | 56 | 227 | 0.0 | 1.7 | 0.00 | 0.00 | 0.00 | 99 | 1006.0 |
| 20260505020420 | 56 | 234 | 0.0 | 0.0 | 0.00 | 0.00 | 0.00 | 99 | 1006.0 |
| 20260505015920 | 56 | 216 | 0.0 | 0.0 | 0.00 | 0.00 | 0.00 | 99 | 1006.0 |
| 20260505015420 | 56 | 247 | 0.0 | 0.0 | 0.00 | 0.00 | 0.00 | 99 | 1006.0 |
| 20260505014920 | 56 | 235 | 0.0 | 0.0 | 0.00 | 0.00 | 0.00 | 99 | 1006.0 |
| 20260505014420 | 56 | 201 | 0.0 | 0.0 | 0.00 | 0.00 | 0.00 | 99 | 1005.2 |
| 20260505013920 | 56 | 208 | 0.0 | 0.0 | 0.00 | 0.00 | 0.00 | 99 | 1005.2 |
| 20260505013420 | 56 | 222 | 0.0 | 0.0 | 0.00 | 0.00 | 0.00 | 99 | 1005.1 |
| 20260505012920 | 56 | 219 | 0.0 | 0.0 | 0.00 | 0.00 | 0.00 | 99 | 1005.0 |
| 20260505012420 | 56 | 201 | 0.0 | 0.0 | 0.00 | 0.00 | 0.00 | 99 | 1005.0 |
| 20260505011920 | 56 | 190 | 0.0 | 0.0 | 0.00 | 0.00 | 0.00 | 99 | 1005.0 |
| 20260505011420 | 56 | 179 | 0.0 | 0.0 | 0.00 | 0.00 | 0.00 | 99 | 1005.0 |
| 20260505010920 | 57 | 168 | 0.0 | 0.0 | 0.00 | 0.00 | 0.00 | 99 | 1005.0 |
| 20260505010420 | 57 | 226 | 0.0 | 0.0 | 0.00 | 0.00 | 0.00 | 99 | 1005.0 |
| 20260505005920 | 57 | 166 | 0.0 | 0.0 | 0.00 | 0.00 | 0.00 | 99 | 1005.0 |
| 20260505005420 | 58 | 242 | 0.0 | 0.0 | 0.00 | 0.00 | 0.00 | 99 | 1005.0 |
| 20260505004920 | 58 | 205 | 0.0 | 0.0 | 0.00 | 0.00 | 0.00 | 99 | 1005.0 |
| 20260505004420 | 58 | 209 | 0.0 | 0.0 | 0.00 | 0.00 | 0.00 | 99 | 1005.0 |
| 20260505003920 | 59 | 180 | 0.0 | 0.0 | 0.00 | 0.00 | 0.00 | 99 | 1005.0 |
| 20260505003420 | 59 | 180 | 0.0 | 0.0 | 0.00 | 0.00 | 0.00 | 99 | 1005.0 |
| 20260505002920 | 60 | 148 | 0.0 | 0.0 | 0.00 | 0.00 | 0.00 | 99 | 1005.0 |
| 20260505002420 | 61 | 174 | 0.0 | 0.0 | 0.00 | 0.00 | 0.00 | 99 | 1005.0 |
| 20260505001920 | 62 | 179 | 0.0 | 0.0 | 0.00 | 0.00 | 0.00 | 99 | 1005.0 |
| 20260505001420 | 64 | 180 | 0.0 | 0.0 | 0.00 | 0.00 | 0.00 | 99 | 1005.0 |
| 20260505000920 | 64 | 196 | 0.0 | 0.0 | 0.00 | 0.00 | 0.00 | 99 | 1005.0 |
| 20260505000420 | 65 | 211 | 0.0 | 1.7 | 0.00 | 0.00 | 0.00 | 99 | 1005.0 |
| 20260504235920 | 66 | 176 | 0.0 | 1.7 | 0.00 | 0.00 | 0.00 | 99 | 1004.2 |
| 20260504235420 | 68 | 222 | 0.0 | 0.9 | 0.00 | 0.00 | 0.00 | 99 | 1005.0 |
| 20260504234920 | 68 | 32 | 0.0 | 2.6 | 0.00 | 0.00 | 0.00 | 99 | 1005.0 |
| 20260504234420 | 69 | 315 | 0.0 | 2.6 | 0.00 | 0.00 | 0.00 | 99 | 1004.2 |
| 20260504233920 | 70 | 267 | 0.0 | 2.6 | 0.00 | 0.00 | 0.00 | 99 | 1005.0 |
| 20260504233420 | 70 | 261 | 0.0 | 6.1 | 0.00 | 0.00 | 0.00 | 99 | 1004.2 |
| 20260504232920 | 71 | 8 | 0.0 | 6.1 | 0.00 | 0.00 | 0.00 | 99 | 1005.0 |
| 20260504232420 | 72 | 357 | 0.0 | 1.7 | 0.00 | 0.00 | 0.00 | 99 | 1004.2 |
| 20260504231920 | 74 | 86 | 0.0 | 2.6 | 0.00 | 0.00 | 0.00 | 99 | 1005.0 |
| 20260504231420 | 75 | 356 | 0.0 | 2.6 | 0.00 | 0.00 | 0.00 | 99 | 1005.0 |
| 20260504230920 | 77 | 319 | 0.0 | 2.6 | 0.00 | 0.00 | 0.00 | 99 | 1004.2 |
| 20260504230420 | 78 | 281 | 0.0 | 2.6 | 0.00 | 0.00 | 0.00 | 99 | 1004.1 |
| 20260504225919 | 79 | 317 | 0.0 | 2.6 | 0.00 | 0.00 | 0.00 | 99 | 1004.0 |
| 20260504225420 | 80 | 320 | 0.0 | 1.7 | 0.00 | 0.00 | 0.00 | 99 | 1004.1 |
| 20260504224920 | 80 | 313 | 0.0 | 1.7 | 0.00 | 0.00 | 0.00 | 99 | 1004.0 |
| 20260504224420 | 81 | 317 | 0.0 | 0.0 | 0.00 | 0.00 | 0.00 | 99 | 1004.0 |
| 20260504223920 | 81 | 313 | 0.0 | 2.6 | 0.00 | 0.00 | 0.00 | 99 | 1004.0 |
| 20260504223420 | 83 | 313 | 0.0 | 2.6 | 0.00 | 0.00 | 0.00 | 99 | 1004.0 |
| 20260504222919 | 83 | 270 | 0.0 | 2.6 | 0.00 | 0.00 | 0.00 | 99 | 1004.0 |
| 20260504222419 | 83 | 3 | 0.0 | 0.0 | 0.00 | 0.00 | 0.00 | 99 | 1004.0 |
| 20260504221920 | 83 | 256 | 0.0 | 0.0 | 0.00 | 0.00 | 0.00 | 99 | 1004.0 |
| 20260504221420 | 83 | 263 | 0.0 | 0.0 | 0.00 | 0.00 | 0.00 | 99 | 1004.0 |
| 20260504220919 | 83 | 268 | 0.0 | 0.0 | 0.00 | 0.00 | 0.00 | 99 | 1004.0 |
| 20260504220419 | 83 | 185 | 0.0 | 0.0 | 0.00 | 0.00 | 0.00 | 99 | 1004.0 |
| 20260504215919 | 83 | 278 | 0.0 | 2.6 | 0.00 | 0.00 | 0.00 | 99 | 1004.0 |
| 20260504215419 | 84 | 236 | 0.0 | 2.6 | 0.00 | 0.00 | 0.00 | 99 | 1004.0 |
| 20260504214919 | 84 | 275 | 0.0 | 0.0 | 0.00 | 0.00 | 0.00 | 99 | 1004.1 |
| 20260504214419 | 84 | 310 | 0.0 | 0.0 | 0.00 | 0.00 | 0.00 | 99 | 1004.1 |
| 20260504213919 | 84 | 310 | 0.0 | 0.0 | 0.00 | 0.00 | 0.00 | 99 | 1004.2 |
| 20260504213420 | 84 | 275 | 0.0 | 0.0 | 0.00 | 0.00 | 0.00 | 99 | 1004.1 |
| 20260504212919 | 84 | 316 | 0.0 | 0.0 | 0.00 | 0.00 | 0.00 | 99 | 1004.2 |
| 20260504212419 | 83 | 277 | 0.0 | 0.0 | 0.00 | 0.00 | 0.00 | 99 | 1004.2 |
| 20260504211919 | 82 | 276 | 0.0 | 7.8 | 0.00 | 0.00 | 0.00 | 99 | 1005.0 |
| 20260504211419 | 82 | 273 | 0.9 | 7.8 | 0.00 | 0.00 | 0.00 | 99 | 1005.0 |
| 20260504210919 | 83 | 287 | 0.0 | 0.0 | 0.00 | 0.00 | 0.00 | 99 | 1005.0 |
| 20260504210419 | 85 | 313 | 0.0 | 0.0 | 0.00 | 0.00 | 0.00 | 99 | 1004.2 |
| 20260504205919 | 83 | 281 | 0.0 | 0.9 | 0.00 | 0.00 | 0.00 | 99 | 1005.0 |
| 20260504205419 | 82 | 264 | 0.0 | 0.9 | 0.00 | 0.00 | 0.00 | 99 | 1004.2 |
| 20260504204919 | 81 | 290 | 0.0 | 0.0 | 0.00 | 0.00 | 0.00 | 99 | 1005.0 |
| 20260504204419 | 81 | 346 | 0.0 | 0.0 | 0.00 | 0.00 | 0.00 | 99 | 1005.0 |
| 20260504203919 | 81 | 308 | 0.0 | 0.0 | 0.00 | 0.00 | 0.00 | 99 | 1005.0 |
| 20260504203420 | 83 | 51 | 0.0 | 4.3 | 0.00 | 0.00 | 0.00 | 99 | 1005.0 |
| 20260504202919 | 81 | 45 | 0.9 | 4.3 | 0.00 | 0.00 | 0.00 | 99 | 1005.0 |
| 20260504202419 | 79 | 314 | 0.0 | 3.5 | 0.00 | 0.00 | 0.00 | 99 | 1005.0 |
| 20260504201919 | 79 | 345 | 0.0 | 0.0 | 0.00 | 0.00 | 0.00 | 99 | 1005.0 |
| 20260504201419 | 80 | 1 | 0.0 | 0.0 | 0.00 | 0.00 | 0.00 | 99 | 1005.0 |
| 20260504200919 | 81 | 358 | 0.0 | 0.0 | 0.00 | 0.00 | 0.00 | 99 | 1005.0 |
| 20260504200419 | 82 | 279 | 0.0 | 1.7 | 0.00 | 0.00 | 0.00 | 99 | 1005.0 |
| 20260504195919 | 86 | 283 | 0.0 | 1.7 | 0.00 | 0.00 | 0.00 | 99 | 1005.0 |
| 20260504195419 | 89 | 354 | 0.0 | 0.9 | 0.00 | 0.00 | 0.00 | 99 | 1005.0 |
| 20260504194919 | 89 | 7 | 0.0 | 0.0 | 0.00 | 0.00 | 0.00 | 99 | 1005.0 |
| 20260504194419 | 88 | 299 | 0.0 | 0.0 | 0.00 | 0.00 | 0.00 | 99 | 1005.0 |
| 20260504193919 | 87 | 359 | 0.0 | 3.5 | 0.00 | 0.00 | 0.00 | 99 | 1005.0 |
| 20260504193419 | 86 | 316 | 0.0 | 3.5 | 0.00 | 0.00 | 0.00 | 99 | 1005.0 |
| 20260504192919 | 84 | 302 | 0.0 | 0.0 | 0.00 | 0.00 | 0.00 | 99 | 1005.0 |
| 20260504192419 | 82 | 315 | 0.0 | 2.6 | 0.00 | 0.00 | 0.00 | 99 | 1005.0 |
| 20260504191919 | 79 | 3 | 0.0 | 2.6 | 0.00 | 0.00 | 0.00 | 99 | 1005.0 |
| 20260504191419 | 78 | 274 | 0.0 | 5.2 | 0.00 | 0.00 | 0.00 | 99 | 1005.0 |
| 20260504190919 | 79 | 4 | 0.0 | 5.2 | 0.00 | 0.00 | 0.00 | 99 | 1005.0 |
| 20260504190419 | 82 | 356 | 0.0 | 4.3 | 0.00 | 0.00 | 0.00 | 99 | 1005.0 |
| 20260504185919 | 84 | 36 | 0.0 | 1.7 | 0.00 | 0.00 | 0.00 | 99 | 1005.0 |
| 20260504185419 | 83 | 35 | 0.0 | 3.5 | 0.00 | 0.00 | 0.00 | 99 | 1005.0 |
| 20260504184919 | 83 | 8 | 0.0 | 3.5 | 0.00 | 0.00 | 0.00 | 99 | 1005.0 |
| 20260504184419 | 85 | 46 | 0.0 | 1.7 | 0.00 | 0.00 | 0.00 | 99 | 1005.0 |
| 20260504183919 | 86 | 331 | 0.0 | 6.1 | 0.00 | 0.00 | 0.00 | 99 | 1005.0 |
| 20260504183419 | 87 | 13 | 0.0 | 6.1 | 0.00 | 0.00 | 0.00 | 99 | 1005.0 |
| 20260504182919 | 87 | 40 | 0.0 | 0.0 | 0.00 | 0.00 | 0.00 | 99 | 1005.0 |
| 20260504182419 | 85 | 306 | 0.0 | 0.0 | 0.00 | 0.00 | 0.00 | 99 | 1005.0 |
| 20260504181919 | 84 | 353 | 0.0 | 3.5 | 0.00 | 0.00 | 0.00 | 99 | 1005.0 |
| 20260504181419 | 84 | 273 | 0.0 | 4.3 | 0.00 | 0.00 | 0.00 | 99 | 1005.0 |
| 20260504180919 | 84 | 307 | 0.0 | 7.0 | 0.00 | 0.00 | 0.00 | 99 | 1005.0 |
| 20260504180419 | 85 | 1 | 0.0 | 7.0 | 0.00 | 0.00 | 0.00 | 99 | 1005.0 |
| 20260504175419 | 83 | 322 | 0.0 | 4.3 | 0.00 | 0.00 | 0.00 | 99 | 1005.0 |
| 20260504174919 | 81 | 38 | 0.0 | 6.1 | 0.00 | 0.00 | 0.00 | 99 | 1005.0 |
| 20260504174419 | 80 | 321 | 0.9 | 6.1 | 0.00 | 0.00 | 0.00 | 99 | 1005.0 |
| 20260504173919 | 80 | 42 | 0.0 | 6.1 | 0.00 | 0.00 | 0.00 | 99 | 1005.0 |
| 20260504173419 | 81 | 278 | 0.0 | 2.6 | 0.00 | 0.00 | 0.00 | 99 | 1005.0 |
| 20260504172919 | 81 | 310 | 0.0 | 0.0 | 0.00 | 0.00 | 0.00 | 99 | 1005.0 |
| 20260504172419 | 81 | 311 | 0.0 | 0.9 | 0.00 | 0.00 | 0.00 | 99 | 1005.0 |
| 20260504171919 | 81 | 3 | 0.0 | 1.7 | 0.00 | 0.00 | 0.00 | 99 | 1005.1 |
| 20260504171419 | 81 | 353 | 0.0 | 5.2 | 0.00 | 0.00 | 0.00 | 99 | 1006.0 |
| 20260504170919 | 79 | 316 | 0.0 | 5.2 | 0.00 | 0.00 | 0.00 | 99 | 1005.2 |
| 20260504170419 | 78 | 274 | 0.0 | 0.0 | 0.00 | 0.00 | 0.00 | 99 | 1005.2 |
| 20260504160419 | 72 | 359 | 0.0 | 4.3 | 0.00 | 0.00 | 0.00 | 99 | 1006.0 |